EW7642 Weather Reports


time (UTC)temp
F
wind
direction
speed
knots
gust
knots
rain 1hr
in
rain 24hr
in
rain mn
in
humidity
%
barometer
mb
20260503230051 74 237 3.5 7.0 0.00 0.00 0.00 51 1010.9
20260503224551 76 251 3.5 8.7 0.00 0.00 0.00 44 1011.1
20260503223045 75 341 7.0 11.3 0.00 0.00 0.00 43 1011.3
20260503221541 74 355 7.8 11.3 0.00 0.00 0.00 44 1011.4
20260503220040 74 9 8.7 11.3 0.00 0.00 0.00 44 1011.5
20260503214542 74 355 7.8 12.2 0.00 0.00 0.00 44 1011.7
20260503213050 73 340 10.4 14.8 0.00 0.00 0.00 45 1011.9
20260503211532 72 320 8.7 14.8 0.00 0.00 0.00 46 1012.0
20260503210024 72 348 10.4 13.9 0.00 0.00 0.00 47 1012.3
20260503204528 72 345 12.2 15.6 0.00 0.00 0.00 47 1012.5
20260503203023 71 349 10.4 14.8 0.00 0.00 0.00 47 1012.7
20260503201520 71 338 10.4 13.9 0.00 0.00 0.00 48 1012.9
20260503200016 71 344 7.0 11.3 0.00 0.00 0.00 52 1013.1
20260503194518 69 153 0.9 5.2 0.00 0.00 0.00 58 1013.2
20260503193009 70 207 3.5 8.7 0.00 0.00 0.00 55 1013.3
20260503191507 71 336 4.3 10.4 0.00 0.00 0.00 49 1013.4
20260503190005 70 12 7.0 13.0 0.00 0.00 0.00 49 1013.6
20260503184502 70 360 7.0 11.3 0.00 0.00 0.00 51 1013.9
20260503183000 70 335 7.0 9.6 0.00 0.00 0.00 49 1014.0
20260503181559 69 329 7.0 10.4 0.00 0.00 0.00 50 1014.1
20260503180056 69 326 5.2 10.4 0.00 0.00 0.00 52 1014.2
20260503174610 69 323 7.8 11.3 0.00 0.00 0.00 52 1014.4
20260503173118 68 331 5.2 11.3 0.00 0.00 0.00 52 1014.3
20260503171551 67 326 7.8 11.3 0.00 0.00 0.00 53 1014.5
20260503100108 55 290 0.0 0.0 0.00 0.00 0.00 88 1014.5
20260503081555 57 293 1.7 3.5 0.00 0.00 0.00 84 1014.3
20260503071550 0 0.0 0.0 0.00 0.00 0.00 1014.2
20260503054502 0 0.0 0.0 0.00 0.00 0.00 1014.2
20260503053058 0 0.0 0.0 0.00 0.00 0.00 1014.2
20260503051554 0 0.0 0.0 0.00 0.00 0.00 1014.3
20260503050056 0 0.0 0.0 0.00 0.00 0.00 1014.2
20260503044545 0 0.0 0.0 0.00 0.00 0.00 1014.1
20260503043045 0 0.0 0.0 0.00 0.00 0.00 1014.0
20260503041537 0 0.0 0.0 0.00 0.00 0.00 1013.9
20260503040035 65 292 0.0 1.7 0.00 0.00 0.00 65 1013.8
20260503034533 65 162 0.0 0.9 0.00 0.00 0.00 60 1013.6
20260503033039 66 162 0.0 1.7 0.00 0.00 0.00 60 1013.4
20260503031536 66 162 0.0 1.7 0.00 0.00 0.00 58 1013.3
20260503030036 67 214 0.0 2.6 0.00 0.00 0.00 56 1013.3
20260503024542 68 227 0.0 4.3 0.00 0.00 0.00 55 1013.3
20260503023030 68 144 1.7 3.5 0.00 0.00 0.00 54 1013.4
20260503021533 68 178 0.9 2.6 0.00 0.00 0.00 56 1013.3
20260503020029 68 150 2.6 5.2 0.00 0.00 0.00 55 1013.3
20260503014527 69 160 2.6 6.1 0.00 0.00 0.00 54 1013.4
20260503013033 70 153 2.6 6.1 0.00 0.00 0.00 53 1013.6
20260503011524 70 178 0.9 4.3 0.00 0.00 0.00 56 1013.6
20260503010022 71 150 2.6 5.2 0.00 0.00 0.00 53 1013.7
20260503004519 71 209 1.7 4.3 0.00 0.00 0.00 53 1013.9
20260503003021 70 190 1.7 4.3 0.00 0.00 0.00 55 1013.9
20260503001512 68 184 1.7 5.2 0.00 0.00 0.00 58 1014.0
20260503000008 68 223 0.9 4.3 0.00 0.00 0.00 60 1014.2
20260502234505 67 213 0.9 3.5 0.00 0.01 0.00 62 1014.4
20260502233001 65 132 2.6 6.1 0.00 0.01 0.00 64 1014.6
20260502231558 65 140 3.5 6.1 0.00 0.01 0.00 66 1014.8